Wind_Speed
9 9 9 8 11 13 14 14 12 15 18 18 20 23 29 28 32 31 33 40 43 46
7 9 9 11 12 12 12 12 13 13 15 16 21 22 25 22 27 27 33 31 32 31
6 8 9 12 13 12 12 12 11 12 12 13 19 21 23 21 21 22 21 22 20 20
4 6 9 11 11 12 12 11 10 10 12 13 14 14 18 20 19 23 21 20 18 19
3 5 8 10 11 13 14 14 15 15 16 18 20 20 21 23 27 26 26 25 20 23
9 10 12 13 14 16 18 21 24 26 29 31 31 33 32 28 26 26 23 23 20 20
19 21 24 26 27 29 30 32 33 35 35 33 32 29 28 28 27 27 26 24 24 24
28 31 33 34 36 36 35 35 35 35 35 34 33 30 27 26 24 24 23 23 22 18
28 30 32 33 33 33 33 35 34 32 32 32 30 26 25 23 21 20 20 20 19 16
30 30 29 31 31 32 31 30 30 30 28 28 27 22 20 19 18 17 17 16 15 13
26 27 28 28 28 28 27 25 25 24 24 24 23 19 17 15 15 14 14 12 11 9
22 22 23 23 23 22 21 20 19 19 18 17 17 15 14 12 12 12 11 9 7 7
18 18 18 18 18 18 17 16 16 15 14 14 13 12 10 9 8 7 7 6 5 6
14 14 14 14 14 14 13 12 12 11 11 9 8 7 5 4 3 4 4 5 5 6
Wind_Direction
221 218 219 227 230 237 251 252 241 241 242 232 241 232 237 229 232 225 231 234 237 231
213 212 208 208 220 235 243 235 232 232 230 225 226 234 242 227 227 224 233 241 219 215
208 204 199 199 201 211 221 220 213 211 204 206 208 212 224 210 202 190 189 185 176 179
198 189 192 193 186 187 182 177 169 165 170 177 181 179 175 169 172 152 140 142 142 135
137 151 162 163 161 154 151 144 142 139 137 138 131 125 131 131 125 122 110 111 111 109
110 118 121 124 130 132 133 133 130 129 126 124 123 125 123 121 115 110 109 113 104 89
113 113 111 110 113 115 116 116 116 115 115 111 108 107 107 107 106 112 115 115 107 110
115 115 114 114 113 112 112 111 106 103 99 98 98 101 104 106 109 108 107 102 100 102
109 110 108 106 103 99 99 101 108 110 111 112 107 106 106 108 108 106 102 101 101 98
107 109 110 109 110 110 110 111 111 110 110 107 105 105 105 105 106 105 101 98 98 95
121 120 120 118 115 114 114 115 113 111 109 110 108 109 108 108 105 101 94 90 82 79
116 118 117 116 116 116 116 115 114 111 108 105 103 99 92 85 80 75 73 69 64 51
123 122 121 121 121 120 120 119 115 114 111 107 100 93 85 77 68 62 57 49 30 6
131 129 126 125 123 119 116 111 106 99 96 92 94 98 98 96 81 58 38 18 3 346
Height
1401 1402 1402 1402 1403 1405 1406 1408 1406 1410 1411 1410 1415 1418 1422 1422 1426 1428 1427 1435 1436 1435
1398 1399 1399 1400 1401 1402 1403 1404 1405 1407 1407 1406 1413 1417 1417 1417 1420 1424 1429 1428 1428 1429
1397 1398 1399 1400 1402 1403 1403 1403 1403 1406 1403 1407 1411 1415 1416 1414 1415 1420 1425 1423 1426 1428
1397 1396 1397 1400 1401 1401 1402 1401 1402 1403 1404 1408 1409 1410 1411 1412 1418 1420 1423 1423 1427 1430
1397 1397 1399 1399 1399 1399 1399 1400 1401 1402 1404 1406 1408 1413 1416 1420 1423 1423 1422 1428 1434 1430
1401 1401 1401 1401 1401 1401 1402 1402 1404 1406 1408 1411 1414 1417 1419 1425 1424 1425 1428 1430 1440 1434
1405 1405 1405 1405 1405 1406 1408 1410 1412 1413 1416 1419 1422 1425 1428 1427 1431 1434 1436 1438 1436 1440
1412 1412 1412 1413 1413 1414 1416 1418 1420 1422 1424 1428 1430 1434 1436 1436 1440 1440 1443 1440 1439 1449
1421 1422 1422 1423 1424 1425 1426 1427 1431 1434 1435 1436 1437 1441 1442 1443 1444 1447 1447 1446 1447 1450
1430 1431 1431 1431 1432 1433 1434 1438 1439 1439 1441 1441 1442 1446 1448 1449 1451 1451 1450 1450 1452 1453
1436 1437 1438 1439 1440 1440 1441 1443 1444 1445 1446 1446 1448 1451 1453 1454 1454 1454 1453 1454 1453 1455
1443 1444 1445 1445 1446 1447 1448 1448 1449 1450 1450 1450 1452 1453 1454 1454 1454 1453 1454 1455 1457 1457
1449 1449 1450 1450 1451 1451 1452 1453 1453 1454 1454 1454 1455 1456 1457 1457 1456 1457 1457 1457 1458 1458
1452 1453 1454 1454 1455 1455 1456 1456 1457 1457 1458 1458 1459 1459 1459 1460 1460 1459 1459 1458 1458 1458